Location: Unspecified
(42.9300°N, 71.1866°W)
Time: 19:50:26
(UTC-05:00)

Genesis I - Visible Passes

Search period start: 20 November 2017 00:00
Search period end: 30 November 2017 00:00
Orbit: 492 x 537 km, 64.5° (Epoch: 20 November)

Date Brightness Start Highest point End Pass type
(mag) Time Alt. Az. Time Alt. Az. Time Alt. Az.
21 Nov 3.4 06:03:43 10° SSW 06:07:35 78° ESE 06:11:33 10° NE visible
22 Nov 3.3 05:47:36 10° SSW 05:51:29 79° ESE 05:55:27 10° NE visible
23 Nov 3.3 05:31:30 10° SSW 05:35:22 80° SE 05:39:20 10° NE visible
24 Nov 3.2 05:15:24 10° SSW 05:19:16 82° ESE 05:23:14 10° NE visible
25 Nov 3.2 05:00:42 21° SSW 05:03:10 83° ESE 05:07:08 10° NE visible
26 Nov 3.1 04:46:47 76° SSW 04:47:04 85° ESE 04:51:02 10° NE visible
27 Nov 4.3 04:32:22 38° NE 04:32:22 38° NE 04:34:55 10° NE visible
27 Nov 5.1 06:07:23 11° WNW 06:09:12 13° NW 06:11:14 10° N visible
28 Nov 5.5 04:17:37 19° NE 04:17:37 19° NE 04:18:49 10° NE visible
28 Nov 5.1 05:52:37 13° NW 05:53:05 13° NW 05:55:06 10° N visible
29 Nov 6.2 04:02:38 10° NE 04:02:38 10° NE 04:02:42 10° NE visible
29 Nov 5.3 05:37:37 13° NNW 05:37:37 13° NNW 05:38:57 10° N visible
